This demonstration page uses our WeatherBlox Daily Observations layout. Learn more.

38.88101, -77.10428

Hourly Observations for June 11, 2019

Temp ( °F °C ) Dew Point ( °F °C ) Humidity (%) Winds ( mph kmh ) Pressure ( in mb ) Visibility ( mi km ) Precip ( " mm )
12:52 am 00:52 Cloudy with Light Rain 72 22.2 67 19.4 84 84 Calm 29.86 1011 10 16.0934 0 0.0254
1:16 am 01:16 Cloudy 72 22.2 68 20 87 87 WNW 5 7 29.87 1011 9 14.48406 0 0.0254
1:32 am 01:32 Cloudy with Heavy Rain 72 22.2 67 19.4 84 84 NW 9 15 29.87 1011 3 4.82802 0.05 1.27
1:52 am 01:52 Cloudy with Light Rain 71 21.7 67 19.4 87 87 NW 9 15 29.87 1012 6 9.65604 0.14 3.556
2:52 am 02:52 Cloudy with Light Rain 70 21.1 66 18.9 87 87 NW 14 22 29.88 1012 10 16.0934 0 0.0254
3:52 am 03:52 Cloudy 70 21.1 63 17.2 79 79 NNW 13 20 29.9 1013 10 16.0934 0 0.0254
4:24 am 04:24 Cloudy 69 20.6 62 16.7 78 78 NW 10 17 29.92 1013 10 16.0934 0 0
4:52 am 04:52 Cloudy 68 20 59 15 73 73 NNW 14 22 29.94 1014 10 16.0934 0 0
5:18 am 05:18 Cloudy 67 19.4 58 14.4 73 73 NW 20 31 29.95 1014 10 16.0934 0 0
5:52 am 05:52 Mostly Cloudy 67 19.4 56 13.3 68 68 NNW 15 24 29.97 1015 10 16.0934 0 0
6:52 am 06:52 Mostly Cloudy 66 18.9 54 12.2 65 65 NNW 17 28 30 1016 10 16.0934 0 0
7:52 am 07:52 Mostly Cloudy 65 18.3 49 9.4 56 56 NNW 23 37 30.03 1017 10 16.0934 0 0
8:52 am 08:52 Partly Cloudy 66 18.9 48 8.9 52 52 NW 17 28 30.04 1017 10 16.0934 0 0
9:52 am 09:52 Mostly Sunny 68 20 48 8.9 49 49 NNW 16 26 30.06 1018 10 16.0934 0 0
10:52 am 10:52 Mostly Sunny 71 21.7 48 8.9 44 44 NNW 16 26 30.05 1018 10 16.0934 0 0
11:52 am 11:52 Mostly Sunny 74 23.3 49 9.4 41 41 NW 14 22 30.05 1018 10 16.0934 0 0
12:52 pm 12:52 Mostly Sunny 75 23.9 49 9.4 40 40 NNW 16 26 30.06 1018 10 16.0934 0 0
1:52 pm 13:52 Mostly Sunny 79 26.1 47 8.3 32 32 NW 16 26 30.05 1018 10 16.0934 0 0
2:52 pm 14:52 Sunny 79 26.1 47 8.3 32 32 NNW 15 24 30.05 1018 10 16.0934 0 0
3:52 pm 15:52 Sunny 81 27.2 47 8.3 30 30 N 17 28 30.05 1018 10 16.0934 0 0
4:52 pm 16:52 Mostly Sunny 79 26.1 46 7.8 31 31 NNW 14 22 30.06 1018 10 16.0934 0 0
5:52 pm 17:52 Mostly Sunny 79 26.1 47 8.3 32 32 NNW 10 17 30.06 1018 10 16.0934 0 0
6:52 pm 18:52 Mostly Cloudy 77 25 48 8.9 36 36 N 15 24 30.04 1017 10 16.0934 0 0
7:52 pm 19:52 Mostly Cloudy 76 24.4 46 7.8 35 35 N 12 19 30.06 1018 10 16.0934 0 0
8:52 pm 20:52 Mostly Cloudy 73 22.8 49 9.4 43 43 N 6 9 30.07 1018 10 16.0934 0 0
9:52 pm 21:52 Mostly Cloudy 73 22.8 48 8.9 41 41 NNW 3 6 30.09 1019 10 16.0934 0 0
10:52 pm 22:52 Cloudy 73 22.8 52 11.1 48 48 Calm 30.1 1019 10 16.0934 0 0
11:52 pm 23:52 Cloudy 67 19.4 54 12.2 63 63 N 6 9 30.11 1020 10 16.0934 0 0

Powered by AerisWeather